"Pseudo-MPEC" for P11l6d5

Created 2021 Sep 15 10:07:23 UT using Find_Orb

Click here for an explanation of pseudo-MPECs

 
 Astrometry: 
     P11l6d5  C2021 09 13dg@PeE!AcEZ+^B13_crJm+e1J6G(\5I2HgueAtELt)I,p.oCY(DNF51
     P11l6d5  C2021 09 13S5FT=(C@nwh5r-VmR\A6+M,:v)M92KA?`AMX#qxqHA`uNpB[Rcq8F51
     P11l6d5  C2021 09 137WR3aYM*!lEv?#yjUJ9v0h%Z0Astrometry`3s1KdhWR)jXVN4HsF51
     P11l6d5  C2021 09 130BP02`4%6ym;YWUFQfKoU\G8LZoUHqNX9YB?W_UV-K5redacted;F51
     P11l6d5  C2021 09 13d6omaeDf:JFc%n[.'tgIT`Z:o6Gt1!p[HWF$!frL3\+[=9bkfF@FF51
     P11l6d5 |C2021 09 14:j7adqLeg-gx-ETtZaTeBK%__%%VppqZAD.+Aa9g;g_u(9`JdecZ807
     P11l6d5 |C2021 09 14KBw+H-!%5`#iH.e/!,$BkyJ^`O%8\*[35]uj!TZ;W#?h'ut,=?_h807
     P11l6d5 |C2021 09 14#y=%%/cD)y[$C7clickX#Ri'J/IR*D8!cQiAQ`0JpsHL*XpAkMMZ807
     P11l6d5 KC2021 09 14.xCX*'v)here?ML`$3;471b_14iD^d528I@jmxNtTJWNw*hVq)j.L01
     P11l6d5 KC2021 09 14;,GAkJ%U9kGc270de^siGgFiCqsg%htLHo=sNMf@tO,f_p+DCu:DL01
     P11l6d5 pC2021 09 14:491a6OTw#4JR;kr5@$UZN;Xr6r,2PECk%3@4)r7qvC2g;bsWvHLL01
     P11l6d5 |C2021 09 15TtL6H8AG52M-;+Y,W/PiQkkm?#igOC;lIQnaLP9CR87YDnBt8sf)807
     P11l6d5 |C2021 09 15f_`/jRA6UL*pyFlCRl[j%8GTforPu@Z;%tK+dWTgS_],9^x]6DrZ807
     P11l6d5 |C2021 09 15IRsJ-Iy']oaXtFv+MQrZjVf)n@*bmeey^i`-CBE8explanation]807

Station data:
(807) Cerro Tololo Observatory, La Serena  (S30.169136 W70.805900)  Chile.
(F51) Pan-STARRS 1, Haleakala  (N20.707235 W156.255910)  US/Hawaii.
   Observers N. Primak, A. Schultz, S. Watters, J. Thiel, T. Goggia. Measurer
   PS1 Science Consortium. 1.8-m Ritchey-Chrétien + CCD.
(L01) Višnjan Observatory, Tičan  (N45.290900 E13.749300)  Croatia.
   Observers K. Korlević, E. Pettarin. Measurer E. Pettarin. 1.0-m f/2.9
   reflector + CCD.

Orbital elements:  P11l6d5
   Perihelion 2021 Nov 17.975837 +/- 0.0309685 TT = 23:25:12 (JD 2459536.475837)
Epoch 2021 Sep 15.0 TT = JDT 2459472.5   Earth MOID: 0.0014   Ve: 0.0748
M 313.66579716 +/- 0.0646035        Ma: 0.0256                AutoNEOCP
n   0.72424535 +/- 0.000660048      Peri.  262.16083 +/- 0.0217149
a   1.22803922 +/- 0.000746101      Node   175.03813 +/- 0.0025854
e   0.3535845 +/- 0.000752188       Incl.    1.24286 +/- 0.0019793
P   1.36/497.06d           H 28.4   G  0.15   U  7.8  
q 0.79382346 +/- 0.000451258    Q 1.66225497 +/- 0.00193014
From 14 observations 2021 Sept. 13-15 (43.2 hr); mean residual 0".21
Residuals in arcseconds: 
210913 F51  .01+  .05+    210914 807  .01+  .06-    210914 L01  .92+  .32-    
210913 F51  .02-  .05-    210914 807  .22-  .01-    210915 807  .25-  .11+    
210913 F51  .03-  .05+    210914 807  .04-  .06-    210915 807  .07+  .02+    
210913 F51  .01+  .04+    210914 L01  .28-  .12+    210915 807  .18-  .03+    
210913 F51  .11+  .00     210914 L01  .22-  .11+    

Ephemerides (geocentric):
Date (UTC) HH   RA              Dec         delta   r     elong  mag " sig PA
---- -- -- --  -------------   -----------  ------ ------ -----  --- ---- ---
2021 09 15 10  23 46 48.231   +00 17 08.92  .03415 1.0396 175.1 21.6 .202  89
2021 09 15 11  23 46 57.175   +00 17 05.43  .03392 1.0394 175.2 21.5 .225  89
2021 09 15 12  23 47 06.243   +00 17 01.87  .03369 1.0391 175.2 21.5 .250  89
2021 09 15 13  23 47 15.437   +00 16 58.25  .03345 1.0389 175.2 21.5 .276  89
2021 09 15 14  23 47 24.760   +00 16 54.58  .03322 1.0387 175.2 21.5 .303  89
2021 09 15 15  23 47 34.214   +00 16 50.85  .03299 1.0384 175.2 21.5 .332  89
2021 09 15 16  23 47 43.803   +00 16 47.05  .03275 1.0382 175.2 21.5 .363  89
2021 09 15 17  23 47 53.529   +00 16 43.19  .03252 1.0379 175.2 21.4 .395  89
2021 09 15 18  23 48 03.395   +00 16 39.27  .03229 1.0377 175.2 21.4 .429  89
2021 09 15 19  23 48 13.405   +00 16 35.28  .03206 1.0374 175.2 21.4 .464  89
2021 09 15 20  23 48 23.561   +00 16 31.23  .03182 1.0372 175.2 21.4 .502  89
2021 09 15 21  23 48 33.866   +00 16 27.10  .03159 1.0370 175.2 21.4 .541  89
2021 09 15 22  23 48 44.325   +00 16 22.91  .03136 1.0367 175.3 21.4 .582  89
2021 09 15 23  23 48 54.939   +00 16 18.65  .03112 1.0365 175.3 21.3 .626  89
2021 09 16 00  23 49 05.714   +00 16 14.32  .03089 1.0362 175.3 21.3 .671  89
2021 09 16 01  23 49 16.651   +00 16 09.91  .03066 1.0360 175.3 21.3 .719  89
2021 09 16 02  23 49 27.756   +00 16 05.43  .03043 1.0357 175.3 21.3 .768  89
2021 09 16 03  23 49 39.032   +00 16 00.88  .03019 1.0355 175.3 21.3 .821  89
2021 09 16 04  23 49 50.483   +00 15 56.24  .02996 1.0353 175.3 21.3 .875  89
2021 09 16 05  23 50 02.112   +00 15 51.53  .02973 1.0350 175.3 21.2 .933  89
2021 09 16 06  23 50 13.925   +00 15 46.73  .02950 1.0348 175.3 21.2 0.99  89
2021 09 16 07  23 50 25.925   +00 15 41.86  .02926 1.0345 175.3 21.2 1.06  89
2021 09 16 08  23 50 38.117   +00 15 36.89  .02903 1.0343 175.3 21.2 1.12  89
2021 09 16 09  23 50 50.505   +00 15 31.84  .02880 1.0340 175.3 21.2 1.19  89
2021 09 16 10  23 51 03.095   +00 15 26.71  .02857 1.0338 175.3 21.2 1.26  90
2021 09 16 11  23 51 15.891   +00 15 21.48  .02833 1.0336 175.3 21.1 1.34  90
2021 09 16 12  23 51 28.898   +00 15 16.16  .02810 1.0333 175.3 21.1 1.41  90
2021 09 16 13  23 51 42.122   +00 15 10.74  .02787 1.0331 175.3 21.1 1.50  90
2021 09 16 14  23 51 55.567   +00 15 05.23  .02764 1.0328 175.3 21.1 1.58  90
2021 09 16 15  23 52 09.240   +00 14 59.61  .02741 1.0326 175.3 21.1 1.67  90
2021 09 16 16  23 52 23.146   +00 14 53.90  .02717 1.0323 175.3 21.0 1.76  90
2021 09 16 17  23 52 37.292   +00 14 48.08  .02694 1.0321 175.2 21.0 1.86  90
2021 09 16 18  23 52 51.682   +00 14 42.16  .02671 1.0319 175.2 21.0 1.96  90
2021 09 16 19  23 53 06.325   +00 14 36.12  .02648 1.0316 175.2 21.0 2.07  90
2021 09 16 20  23 53 21.225   +00 14 29.98  .02625 1.0314 175.2 21.0 2.18  90
2021 09 16 21  23 53 36.391   +00 14 23.72  .02602 1.0311 175.2 20.9 2.29  90
2021 09 16 22  23 53 51.829   +00 14 17.34  .02578 1.0309 175.2 20.9 2.42  90
2021 09 16 23  23 54 07.547   +00 14 10.84  .02555 1.0306 175.2 20.9 2.54  90
2021 09 17 00  23 54 23.552   +00 14 04.22  .02532 1.0304 175.2 20.9 2.67  90
2021 09 17 01  23 54 39.852   +00 13 57.47  .02509 1.0302 175.2 20.9 2.81  90
2021 09 17 02  23 54 56.455   +00 13 50.59  .02486 1.0299 175.1 20.8 2.95  90
2021 09 17 03  23 55 13.370   +00 13 43.57  .02463 1.0297 175.1 20.8 3.10  90
2021 09 17 04  23 55 30.605   +00 13 36.42  .02440 1.0294 175.1 20.8 3.26  90
2021 09 17 05  23 55 48.170   +00 13 29.12  .02416 1.0292 175.1 20.8 3.42  90
2021 09 17 06  23 56 06.073   +00 13 21.68  .02393 1.0289 175.1 20.8 3.59  90
2021 09 17 07  23 56 24.326   +00 13 14.09  .02370 1.0287 175.0 20.7 3.77  90
2021 09 17 08  23 56 42.938   +00 13 06.35  .02347 1.0285 175.0 20.7 3.95  90
2021 09 17 09  23 57 01.919   +00 12 58.45  .02324 1.0282 175.0 20.7 4.15  90